GW6071 Weather Reports


time (UTC)temp
C
wind
direction
speed
KPH
gust
KPH
rain 1hr
cm
rain 24hr
cm
rain mn
cm
humidity
%
barometer
mb
20260906224516 35 154 6.4 11.3 0.00 0.00 0.00 40 1011.8
20260906223017 35 197 6.4 14.5 0.00 0.00 0.00 42 1011.9
20260906221533 35 116 12.9 19.3 0.00 0.00 0.00 40 1012.0
20260906220006 35 119 9.7 17.7 0.00 0.00 0.00 40 1012.2
20260906214507 35 114 8.0 12.9 0.00 0.00 0.00 40 1012.3
20260906213011 36 93 12.9 17.7 0.00 0.00 0.00 40 1012.5
20260906211521 35 133 14.5 20.9 0.00 0.00 0.00 39 1012.7
20260906210006 36 115 6.4 24.1 0.00 0.00 0.00 38 1012.7
20260906204508 36 111 16.1 24.1 0.00 0.00 0.00 39 1013.0
20260906203013 36 140 6.4 19.3 0.00 0.00 0.00 40 1013.0
20260906201518 36 109 17.7 24.1 0.00 0.00 0.00 41 1013.2
20260906200024 36 130 8.0 22.5 0.00 0.00 0.00 40 1013.4
20260906194504 35 80 4.8 27.4 0.00 0.00 0.00 42 1013.6
20260906193010 36 190 8.0 25.7 0.00 0.00 0.00 41 1013.6
20260906191518 35 174 11.3 19.3 0.00 0.00 0.00 42 1013.8
20260906190027 35 135 8.0 17.7 0.00 0.00 0.00 41 1014.0
20260906184529 34 113 4.8 19.3 0.00 0.00 0.00 44 1014.2
20260906183012 34 94 6.4 19.3 0.00 0.00 0.00 43 1014.5
20260906181519 34 147 1.6 12.9 0.00 0.00 0.00 45 1014.6
20260906180037 34 155 8.0 24.1 0.00 0.00 0.00 44 1015.0
20260906174530 34 33 3.2 12.9 0.00 0.00 0.00 46 1015.2
20260906173007 34 180 4.8 17.7 0.00 0.00 0.00 44 1015.4
20260906171515 33 300 3.2 16.1 0.00 0.00 0.00 46 1015.6
20260906170021 33 107 3.2 17.7 0.00 0.00 0.00 45 1015.7
20260906164527 33 132 3.2 16.1 0.00 0.00 0.00 49 1016.0
20260906163032 33 284 3.2 17.7 0.00 0.00 0.00 48 1016.0
20260906161514 32 12 6.4 14.5 0.00 0.00 0.00 51 1016.1
20260906160028 32 141 0.0 11.3 0.00 0.00 0.00 52 1016.0
20260906154525 31 47 3.2 8.0 0.00 0.00 0.00 55 1016.1
20260906153032 30 313 3.2 9.7 0.00 0.00 0.00 58 1016.1
20260906151508 30 271 4.8 11.3 0.00 0.00 0.00 59 1016.1
20260906150014 30 271 4.8 6.4 0.00 0.00 0.00 60 1016.0
20260906144524 28 202 1.6 6.4 0.00 0.00 0.00 63 1016.0
20260906143027 28 295 3.2 6.4 0.00 0.00 0.00 63 1015.9
20260906141530 28 245 0.0 3.2 0.00 0.00 0.00 66 1015.8
20260906140013 27 180 1.6 6.4 0.00 0.00 0.00 69 1015.8
20260906134518 26 187 1.6 4.8 0.00 0.00 0.00 71 1015.8
20260906133029 26 137 0.0 3.2 0.00 0.00 0.00 75 1015.6
20260906131530 24 148 0.0 0.0 0.00 0.00 0.00 79 1015.6
20260906130032 23 148 0.0 0.0 0.00 0.00 0.00 82 1015.4
20260906124518 22 147 0.0 0.0 0.00 0.00 0.00 84 1015.3
20260906123025 22 147 0.0 0.0 0.00 0.00 0.00 1015.1
20260906121511 22 147 0.0 0.0 0.00 0.00 0.00 84 1014.9
20260906120013 22 147 0.0 0.0 0.00 0.00 0.00 83 1014.7
20260906114534 22 147 0.0 1.6 0.00 0.00 0.00 82 1014.6
20260906113026 22 148 0.0 3.2 0.00 0.00 0.00 82 1014.5
20260906111529 23 147 0.0 0.0 0.00 0.00 0.00 80 1014.4
20260906110012 23 148 0.0 3.2 0.00 0.00 0.00 80 1014.3
20260906104521 23 147 1.6 3.2 0.00 0.00 0.00 80 1014.3
20260906103023 23 147 0.0 0.0 0.00 0.00 0.00 79 1014.2
20260906101528 23 147 0.0 3.2 0.00 0.00 0.00 78 1014.2
20260906100037 23 147 0.0 3.2 0.00 0.00 0.00 78 1014.1
20260906094514 24 148 0.0 0.0 0.00 0.00 0.00 77 1014.2
20260906093023 24 139 0.0 3.2 0.00 0.00 0.00 77 1014.1
20260906091527 23 139 0.0 3.2 0.00 0.00 0.00 77 1014.1
20260906090031 24 139 0.0 0.0 0.00 0.00 0.00 76 1014.0
20260906084510 24 139 0.0 3.2 0.00 0.00 0.00 76 1014.0
20260906083017 24 139 0.0 3.2 0.00 0.00 0.00 75 1013.9
20260906081524 25 139 1.6 1.6 0.00 0.00 0.00 74 1013.8
20260906080029 25 139 1.6 3.2 0.00 0.00 0.00 73 1014.1
20260906074532 25 139 1.6 3.2 0.00 0.00 0.00 72 1014.0
20260906073019 25 162 0.0 3.2 0.00 0.00 0.00 71 1013.9
20260906071523 25 146 0.0 3.2 0.00 0.00 0.00 70 1014.1
20260906070027 26 190 3.2 9.7 0.00 0.00 0.00 70 1014.3
20260906064531 26 148 1.6 4.8 0.00 0.00 0.00 69 1014.4
20260906063015 26 172 0.0 4.8 0.00 0.00 0.00 69 1014.5
20260906061519 26 142 1.6 4.8 0.00 0.00 0.00 68 1014.7
20260906060027 27 138 4.8 6.4 0.00 0.00 0.00 68 1015.0
20260906054542 27 138 4.8 6.4 0.00 0.00 0.00 66 1014.9
20260906053034 27 155 3.2 9.7 0.00 0.00 0.00 66 1014.7
20260906051518 27 163 4.8 12.9 0.00 0.00 0.00 65 1014.9
20260906050027 27 136 3.2 8.0 0.00 0.00 0.00 65 1014.7
20260906044531 27 129 6.4 11.3 0.00 0.00 0.00 65 1014.9
20260906043032 28 139 4.8 11.3 0.00 0.00 0.00 63 1014.7
20260906041514 28 149 1.6 11.3 0.00 0.00 0.00 61 1014.5
20260906040041 28 137 4.8 12.9 0.00 0.00 0.00 59 1014.5
20260906034530 29 144 9.7 16.1 0.00 0.00 0.00 58 1014.4
20260906033045 30 132 11.3 19.3 0.00 0.00 0.00 56 1014.2
20260906031531 30 113 11.3 16.1 0.00 0.00 0.00 53 1014.1
20260906030023 30 107 6.4 12.9 0.00 0.00 0.00 52 1013.9
20260906024531 30 118 4.8 8.0 0.00 0.00 0.00 51 1013.7
20260906023028 30 119 6.4 11.3 0.00 0.00 0.00 50 1013.5
20260906021510 31 119 6.4 9.7 0.00 0.00 0.00 49 1013.3
20260906020018 31 115 4.8 9.7 0.00 0.00 0.00 48 1013.1
20260906014529 31 103 3.2 4.8 0.00 0.00 0.00 48 1012.9
20260906013033 31 135 0.0 3.2 0.00 0.00 0.00 48 1012.7
20260906011515 32 135 0.0 3.2 0.00 0.00 0.00 46 1012.5
20260906010019 32 117 3.2 9.7 0.00 0.00 0.00 45 1012.4
20260906004526 33 136 6.4 9.7 0.00 0.00 0.00 43 1012.3
20260906003031 33 149 6.4 14.5 0.00 0.00 0.00 41 1012.3
20260906001533 34 163 6.4 14.5 0.00 0.00 0.00 40 1012.2
20260906000017 35 136 8.0 16.1 0.00 0.00 0.00 38 1012.2
20260905234524 35 115 8.0 12.9 0.00 0.00 0.00 37 1012.0
20260905233029 35 112 12.9 17.7 0.00 0.00 0.00 36 1012.0
20260905231517 35 155 9.7 25.7 0.00 0.00 0.00 37 1012.0
20260905230012 36 136 8.0 16.1 0.00 0.00 0.00 36 1011.8